AE7MK-13 Weather Reports


time (UTC)temp
F
wind
direction
speed
knots
gust
knots
rain 1hr
in
rain 24hr
in
rain mn
in
humidity
%
barometer
mb
20260503203003 70 241 3.5 7.8 0.00 0.00 0.00 26 1016.4
20260503202003 70 235 3.5 7.8 0.00 0.00 0.00 27 1016.3
20260503201003 70 238 2.6 7.8 0.00 0.00 0.00 27 1016.5
20260503200003 70 245 4.3 8.7 0.00 0.00 0.00 26 1016.7
20260503195003 70 280 1.7 8.7 0.00 0.00 0.00 27 1016.7
20260503194003 69 296 2.6 7.8 0.00 0.00 0.00 24 1016.9
20260503193003 70 289 4.3 8.7 0.00 0.00 0.00 24 1017.0
20260503192213 69 288 1.7 6.1 0.00 0.00 0.00 27 1017.0
20260503191003 70 346 1.7 7.8 0.00 0.00 0.00 27 1017.1
20260503190215 70 331 0.9 6.1 0.00 0.00 0.00 25 1017.1
20260503185213 69 310 2.6 7.0 0.00 0.00 0.00 26 1017.3
20260503184003 69 42 1.7 7.8 0.00 0.00 0.00 27 1017.3
20260503183212 70 130 0.9 4.3 0.00 0.00 0.00 25 1017.5
20260503182212 69 166 0.9 6.1 0.00 0.00 0.00 25 1017.4
20260503181004 68 43 1.7 6.1 0.00 0.00 0.00 25 1017.6
20260503180214 68 30 1.7 7.8 0.00 0.00 0.00 25 1017.6
20260503175214 68 43 2.6 7.8 0.00 0.00 0.00 25 1017.6
20260503174003 68 23 3.5 8.7 0.00 0.00 0.00 24 1017.6
20260503173003 67 30 3.5 7.8 0.00 0.00 0.00 25 1017.7
20260503172003 67 31 3.5 9.6 0.00 0.00 0.00 25 1017.7
20260503171003 67 21 4.3 9.6 0.00 0.00 0.00 25 1017.7
20260503170214 67 35 5.2 9.6 0.00 0.00 0.00 25 1017.7
20260503151003 64 360 2.6 7.0 0.00 0.00 0.00 30 1018.0
20260503131003 53 343 3.5 5.2 0.00 0.00 0.00 50 1017.9
20260503130214 53 344 4.3 6.1 0.00 0.00 0.00 50 1017.9
20260503081003 54 318 0.9 4.3 0.00 0.00 0.00 53 1018.3
20260503072003 53 342 3.5 3.5 0.00 0.00 0.00 55 1018.2
20260503071003 53 342 3.5 3.5 0.00 0.00 0.00 54 1018.1
20260503054003 54 337 3.5 4.3 0.00 0.00 0.00 50 1018.1
20260503053003 54 341 3.5 4.3 0.00 0.00 0.00 47 1018.1
20260503052003 54 336 3.5 4.3 0.00 0.00 0.00 45 1018.1
20260503051003 55 335 3.5 5.2 0.00 0.00 0.00 44 1018.2
20260503050004 55 338 3.5 5.2 0.00 0.00 0.00 43 1018.2
20260503045003 55 333 2.6 4.3 0.00 0.00 0.00 42 1018.2
20260503044003 55 332 3.5 4.3 0.00 0.00 0.00 44 1018.1
20260503043003 55 331 2.6 4.3 0.00 0.00 0.00 44 1018.1
20260503042003 54 331 2.6 4.3 0.00 0.00 0.00 46 1018.0
20260503041003 55 332 2.6 4.3 0.00 0.00 0.00 45 1017.8
20260503040213 56 328 2.6 3.5 0.00 0.00 0.00 44 1017.8
20260503035003 57 325 0.9 3.5 0.00 0.00 0.00 44 1017.6
20260503034003 58 323 0.0 2.6 0.00 0.00 0.00 44 1017.6
20260503033003 60 333 0.0 2.6 0.00 0.00 0.00 40 1017.4
20260503032003 61 325 0.9 2.6 0.00 0.00 0.00 39 1017.3
20260503031003 62 313 0.0 2.6 0.00 0.00 0.00 38 1017.3
20260503030213 64 320 0.0 0.9 0.00 0.00 0.00 37 1017.2
20260503025003 65 328 0.0 0.9 0.00 0.00 0.00 35 1017.1
20260503024003 66 347 0.9 2.6 0.00 0.00 0.00 34 1017.1
20260503023003 66 345 0.9 2.6 0.00 0.00 0.00 35 1017.1
20260503022003 66 345 1.7 4.3 0.00 0.00 0.00 36 1017.1
20260503021212 66 347 1.7 3.5 0.00 0.00 0.00 35 1017.2
20260503020214 66 342 0.9 2.6 0.00 0.00 0.00 34 1017.1
20260503015214 66 342 0.0 2.6 0.00 0.00 0.00 33 1017.2
20260503014003 67 340 2.6 6.1 0.00 0.00 0.00 31 1017.2
20260503013003 68 325 2.6 7.8 0.00 0.00 0.00 30 1017.2
20260503012214 68 311 2.6 7.8 0.00 0.00 0.00 30 1017.2
20260503011003 68 319 1.7 7.0 0.00 0.00 0.00 31 1017.2
20260503010003 68 355 1.7 5.2 0.00 0.00 0.00 30 1017.3
20260503005214 68 350 0.9 5.2 0.00 0.00 0.00 30 1017.3
20260503004003 68 5 0.9 4.3 0.00 0.00 0.00 28 1017.4
20260503003003 69 13 0.9 5.2 0.00 0.00 0.00 29 1017.4
20260503002003 69 11 2.6 7.8 0.00 0.00 0.00 28 1017.4
20260503001003 69 22 2.6 9.6 0.00 0.00 0.00 30 1017.3
20260503000004 69 12 2.6 6.1 0.00 0.00 0.00 29 1017.5
20260502235003 69 355 2.6 8.7 0.00 0.00 0.00 29 1017.5
20260502234003 70 13 3.5 10.4 0.00 0.00 0.00 28 1017.5
20260502233213 70 8 3.5 8.7 0.00 0.00 0.00 30 1017.6
20260502232003 70 11 2.6 8.7 0.00 0.00 0.00 29 1017.7
20260502231003 69 80 1.7 6.1 0.00 0.00 0.00 30 1017.8
20260502230005 69 49 2.6 9.6 0.00 0.00 0.00 30 1017.9
20260502225003 70 82 1.7 4.3 0.00 0.00 0.00 30 1018.0
20260502224003 68 33 4.3 10.4 0.00 0.00 0.00 30 1018.2
20260502223213 69 343 2.6 5.2 0.00 0.00 0.00 28 1018.2
20260502222003 70 23 3.5 8.7 0.00 0.00 0.00 29 1018.3
20260502221003 69 348 1.7 7.8 0.00 0.00 0.00 30 1018.4
20260502220003 69 358 3.5 9.6 0.00 0.00 0.00 30 1018.5
20260502215003 68 62 4.3 10.4 0.00 0.00 0.00 32 1018.5
20260502214003 68 12 4.3 10.4 0.00 0.00 0.00 30 1018.6
20260502213003 68 10 4.3 9.6 0.00 0.00 0.00 29 1018.7
20260502212212 68 2 4.3 8.7 0.00 0.00 0.00 32 1018.8
20260502211003 68 21 3.5 9.6 0.00 0.00 0.00 31 1018.8
20260502210003 68 3 3.5 10.4 0.00 0.00 0.00 31 1018.8
20260502205003 68 11 2.6 7.8 0.00 0.00 0.00 32 1018.9
20260502204003 66 40 5.2 11.3 0.00 0.00 0.00 33 1018.9